FREGAT R/B, 40130

Orbit data source: Space-Track

FREGAT R/B, 40130 is space debris in HEO originally from a launch on Fri, 22 Aug 2014 UTC launched from the French Guiana (FRGUI). Debris objects in space refer to the collection of defunct objects orbiting the Earth. Examples of debris include non-operational satellites, rocket bodies, and fragments generated from explosions, collisions, or faulty payload assembly.

Loading next visibility...
Identifier
40130, 2014-050C
Orbit
HEO
Country
Flag of CISCIS
Related business
Manufacturer
Lavochkin
Mission
Spacecraft
Bus & Motor
FREGAT, Unknown motor
Mass
1,050 kg wet, 1,050 kg dry
Launch date (UTC)
2014-08-22 (12 years ago)
Launch vehicle
Unknown
Launch site
French Guiana (FRGUI)
Object type
Payload
Rocket body
Debris
Shape & HBR
Irr, 1.6 m
Radar Cross Section
11.055 m², Large (>1 m²)

Expand to show TLE details & history
Last TLE update: 11 hours ago

TLE from 11 hours ago
0 FREGAT R/B
1 40130U 14050C   26169.88890885  .00000020  00000-0  00000+0 0  9997
2 40130  48.4068 215.4056 2685037 226.2446 108.2003  2.05031305 88559
Epoch: 2026-06-18T21:20Z
TLE epoch observation values (Epoch: 2026-06-18T21:20:01.724Z)
Latitude
0.00001°
Longitude
-11.71258°
Altitude
23,450.997 km
Speed
3.391 km/s
True Right ascension
14h 21m 40s
True Declination
0° 00' 00"
Sunlit
Object was in daylight at epoch
Visualization orbit readout
Latitude
Unknown
Longitude
Unknown
Altitude
Unknown
Speed
Unknown
Apparent Right ascension
Unknown
Apparent Declination
Unknown
Sunlit
N/A
Visualization observer readout
Local Sidereal Time
19:16:26
Azimuth
Unknown
Elevation
Unknown
Doppler factor
Unknown
Orbital elements
Apogee altitude
26,822.934 km
Perigee altitude
12,767.618 km
Semi-major axis
26,173.413 km
Eccentricity
0.2685
Inclination
48.4068°
RAAN
215.4056°
Arg. of periapsis
226.2446°
True anomaly
133.78707°
Mean anomaly
108.2003°
Eccentric anomaly
121.33984°
Mean motion
0.51257 °/min
Orbital period
702.34 mins
BSTAR
0
Loading maneuver chart data...
Computing Atmospheric mass density...
Loading historical data...
Loading historical data...
Loading historical data...
Loading historical data...
Loading historical data...
Loading historical data...
Loading historical data...
Other satellites on launch #50 in the year 2014 (2014-08-22 UTC)

Documentation

Showing up to 5 results
|